Time,TemperatureF,DewpointF,PressureIn,WindDirection,WindDirectionDegrees,WindSpeedMPH,WindSpeedGustMPH,Humidity,HourlyPrecipIn,Conditions,Clouds,dailyrainin,SoftwareType,DateUTC
2013-04-26 00:02:00,41.8,33.1,30.08,SW,222,3.5,3.5,71,0.00,CLR,,0.00,WeatherDisplay:10.37,2013-04-26 07:02:00,
2013-04-26 00:07:00,41.5,32.8,30.08,SW,222,3.5,3.5,71,0.00,CLR,,0.00,WeatherDisplay:10.37,2013-04-26 07:07:00,
2013-04-26 00:12:00,41.5,32.8,30.09,SW,214,9.2,9.2,71,0.00,CLR,,0.00,WeatherDisplay:10.37,2013-04-26 07:12:00,
2013-04-26 00:17:00,42.3,32.8,30.08,SW,219,4.0,4.0,69,0.00,CLR,,0.00,WeatherDisplay:10.37,2013-04-26 07:17:00,
2013-04-26 00:22:00,42.3,32.8,30.08,SW,220,6.9,6.9,69,0.00,CLR,,0.00,WeatherDisplay:10.37,2013-04-26 07:22:00,
2013-04-26 00:27:00,41.8,32.7,30.08,SW,225,4.6,4.6,70,0.00,CLR,,0.00,WeatherDisplay:10.37,2013-04-26 07:27:00,
2013-04-26 00:32:00,41.9,32.8,30.08,SW,225,4.0,4.0,70,0.00,CLR,,0.00,WeatherDisplay:10.37,2013-04-26 07:32:00,
2013-04-26 00:37:00,42.0,32.9,30.09,WSW,237,4.6,4.6,70,0.00,CLR,,0.00,WeatherDisplay:10.37,2013-04-26 07:37:00,
2013-04-26 00:43:00,42.2,33.1,30.08,WSW,237,4.0,4.0,70,0.00,CLR,,0.00,WeatherDisplay:10.37,2013-04-26 07:43:00,
2013-04-26 00:48:00,42.3,32.8,30.08,WSW,237,4.6,4.6,69,0.00,CLR,,0.00,WeatherDisplay:10.37,2013-04-26 07:48:00,
2013-04-26 00:53:00,42.6,33.1,30.08,WSW,237,4.0,4.0,69,0.00,CLR,,0.00,WeatherDisplay:10.37,2013-04-26 07:53:00,
2013-04-26 00:58:00,42.9,33.1,30.08,WSW,237,4.0,4.0,68,0.00,CLR,,0.00,WeatherDisplay:10.37,2013-04-26 07:58:00,
2013-04-26 01:03:00,42.5,32.7,30.06,WSW,237,5.0,5.0,68,0.00,CLR,,0.00,WeatherDisplay:10.37,2013-04-26 08:03:00,
2013-04-26 01:08:00,41.6,32.5,30.07,SW,225,5.8,5.8,70,0.00,CLR,,0.00,WeatherDisplay:10.37,2013-04-26 08:08:00,
2013-04-26 01:13:00,41.5,32.8,30.07,SW,225,4.6,4.6,71,0.00,CLR,,0.00,WeatherDisplay:10.37,2013-04-26 08:13:00,
2013-04-26 01:18:00,41.7,32.6,30.07,SW,226,4.6,4.6,70,0.00,CLR,,0.00,WeatherDisplay:10.37,2013-04-26 08:18:00,
2013-04-26 01:23:00,41.9,32.8,30.07,SW,226,4.6,4.6,70,0.00,CLR,,0.00,WeatherDisplay:10.37,2013-04-26 08:23:00,
2013-04-26 01:28:00,42.2,32.8,30.07,SW,226,4.6,4.6,69,0.00,CLR,,0.00,WeatherDisplay:10.37,2013-04-26 08:28:00,
2013-04-26 01:33:00,42.4,32.9,30.07,SSW,201,5.0,5.0,69,0.00,CLR,,0.00,WeatherDisplay:10.37,2013-04-26 08:33:00,
2013-04-26 01:38:00,42.9,32.7,30.06,SSW,201,6.0,6.0,67,0.00,CLR,,0.00,WeatherDisplay:10.37,2013-04-26 08:38:00,
2013-04-26 01:43:00,43.8,32.8,30.06,SSW,200,5.0,5.0,65,0.00,CLR,,0.00,WeatherDisplay:10.37,2013-04-26 08:43:00,
2013-04-26 01:48:00,44.2,32.8,30.07,SSW,201,4.6,4.6,64,0.00,CLR,,0.00,WeatherDisplay:10.37,2013-04-26 08:48:00,
2013-04-26 01:53:00,43.6,32.6,30.07,SSW,200,3.5,3.5,65,0.00,CLR,,0.00,WeatherDisplay:10.37,2013-04-26 08:53:00,
2013-04-26 01:58:00,42.9,32.3,30.07,SSW,198,7.0,7.0,66,0.00,CLR,,0.00,WeatherDisplay:10.37,2013-04-26 08:58:00,
2013-04-26 02:03:00,42.8,32.2,30.07,SSW,205,5.8,5.8,66,0.00,CLR,,0.00,WeatherDisplay:10.37,2013-04-26 09:03:00,
2013-04-26 02:08:00,42.7,32.1,30.07,SW,215,6.9,6.9,66,0.00,CLR,,0.00,WeatherDisplay:10.37,2013-04-26 09:08:00,
2013-04-26 02:13:00,42.6,32.4,30.07,SW,229,7.0,7.0,67,0.00,CLR,,0.00,WeatherDisplay:10.37,2013-04-26 09:13:00,
2013-04-26 02:18:00,42.0,32.2,30.07,SW,225,8.1,8.1,68,0.00,CLR,,0.00,WeatherDisplay:10.37,2013-04-26 09:18:00,
2013-04-26 02:23:00,41.8,32.4,30.07,SW,223,5.0,5.0,69,0.00,CLR,,0.00,WeatherDisplay:10.37,2013-04-26 09:23:00,
2013-04-26 02:28:00,42.0,32.2,30.07,SW,230,8.1,8.1,68,0.00,CLR,,0.00,WeatherDisplay:10.37,2013-04-26 09:28:00,
2013-04-26 02:33:00,41.9,32.5,30.07,SW,222,3.5,3.5,69,0.00,CLR,,0.00,WeatherDisplay:10.37,2013-04-26 09:33:00,
2013-04-26 02:38:00,41.0,32.3,30.08,SSW,196,4.6,4.6,71,0.00,CLR,,0.00,WeatherDisplay:10.37,2013-04-26 09:38:00,
2013-04-26 02:43:00,40.6,31.9,30.08,WSW,254,4.6,4.6,71,0.00,CLR,,0.00,WeatherDisplay:10.37,2013-04-26 09:43:00,
2013-04-26 02:48:00,43.1,32.5,30.07,SSW,207,8.1,8.1,66,0.00,CLR,,0.00,WeatherDisplay:10.37,2013-04-26 09:48:00,
2013-04-26 02:53:00,43.5,32.5,30.07,SSW,207,3.5,3.5,65,0.00,CLR,,0.00,WeatherDisplay:10.37,2013-04-26 09:53:00,
2013-04-26 02:58:00,43.5,32.1,30.07,SSW,195,4.0,4.0,64,0.00,CLR,,0.00,WeatherDisplay:10.37,2013-04-26 09:58:00,
2013-04-26 03:03:00,43.9,32.1,30.07,South,180,5.8,5.8,63,0.00,CLR,,0.00,WeatherDisplay:10.37,2013-04-26 10:03:00,
2013-04-26 03:08:00,43.6,32.2,30.07,South,180,5.0,5.0,64,0.00,CLR,,0.00,WeatherDisplay:10.37,2013-04-26 10:08:00,
2013-04-26 03:13:00,43.1,32.1,30.07,SSW,194,5.0,5.0,65,0.00,CLR,,0.00,WeatherDisplay:10.37,2013-04-26 10:13:00,
2013-04-26 03:18:00,43.0,32.0,30.08,SSW,195,5.8,5.8,65,0.00,CLR,,0.00,WeatherDisplay:10.37,2013-04-26 10:18:00,
2013-04-26 03:23:00,42.8,32.2,30.08,SSW,195,5.8,5.8,66,0.00,CLR,,0.00,WeatherDisplay:10.37,2013-04-26 10:23:00,
2013-04-26 03:28:00,42.6,32.0,30.08,SSW,195,4.6,4.6,66,0.00,CLR,,0.00,WeatherDisplay:10.37,2013-04-26 10:28:00,
2013-04-26 03:33:00,42.2,32.0,30.08,SSW,195,3.5,3.5,67,0.00,CLR,,0.00,WeatherDisplay:10.37,2013-04-26 10:33:00,
2013-04-26 03:39:00,42.1,31.9,30.08,SSW,195,3.5,3.5,67,0.00,CLR,,0.00,WeatherDisplay:10.37,2013-04-26 10:39:00,
2013-04-26 03:44:00,42.4,32.2,30.08,SW,221,3.5,4.0,67,0.00,CLR,,0.00,WeatherDisplay:10.37,2013-04-26 10:44:00,
2013-04-26 03:49:00,43.0,32.0,30.08,SW,221,3.5,3.5,65,0.00,CLR,,0.00,WeatherDisplay:10.37,2013-04-26 10:49:00,
2013-04-26 03:54:00,43.3,31.9,30.08,SW,221,5.0,5.0,64,0.00,CLR,,0.00,WeatherDisplay:10.37,2013-04-26 10:54:00,
2013-04-26 03:59:00,43.3,31.9,30.08,SW,221,3.5,3.5,64,0.00,CLR,,0.00,WeatherDisplay:10.37,2013-04-26 10:59:00,
2013-04-26 04:04:00,43.2,31.8,30.08,SW,221,3.5,3.5,64,0.00,CLR,,0.00,WeatherDisplay:10.37,2013-04-26 11:04:00,
2013-04-26 04:09:00,43.1,31.7,30.08,SW,221,3.5,3.5,64,0.00,CLR,,0.00,WeatherDisplay:10.37,2013-04-26 11:09:00,
2013-04-26 04:14:00,43.1,32.1,30.08,SW,221,3.5,3.5,65,0.00,CLR,,0.00,WeatherDisplay:10.37,2013-04-26 11:14:00,
2013-04-26 04:19:00,42.8,31.8,30.08,SW,221,2.3,2.3,65,0.00,CLR,,0.00,WeatherDisplay:10.37,2013-04-26 11:19:00,
2013-04-26 04:24:00,42.2,32.0,30.09,SW,221,3.5,3.5,67,0.00,CLR,,0.00,WeatherDisplay:10.37,2013-04-26 11:24:00,
2013-04-26 04:29:00,41.5,31.7,30.09,SW,221,2.3,2.3,68,0.00,CLR,,0.00,WeatherDisplay:10.37,2013-04-26 11:29:00,
2013-04-26 04:34:00,41.1,31.7,30.09,SW,221,3.5,3.5,69,0.00,CLR,,0.00,WeatherDisplay:10.37,2013-04-26 11:34:00,
2013-04-26 04:39:00,41.0,32.0,30.09,SW,221,3.5,3.5,70,0.00,CLR,,0.00,WeatherDisplay:10.37,2013-04-26 11:39:00,
2013-04-26 04:44:00,41.0,32.0,30.09,SW,221,3.5,3.5,70,0.00,CLR,,0.00,WeatherDisplay:10.37,2013-04-26 11:44:00,
2013-04-26 04:49:00,41.1,31.7,30.09,SW,221,3.5,3.5,69,0.00,CLR,,0.00,WeatherDisplay:10.37,2013-04-26 11:49:00,
2013-04-26 04:54:00,41.1,31.7,30.09,SW,221,3.5,3.5,69,0.00,CLR,,0.00,WeatherDisplay:10.37,2013-04-26 11:54:00,
2013-04-26 04:59:00,40.8,31.8,30.10,SW,221,4.6,4.6,70,0.00,CLR,,0.00,WeatherDisplay:10.37,2013-04-26 11:59:00,
2013-04-26 05:04:00,40.8,31.8,30.11,SW,221,3.5,3.5,70,0.00,CLR,,0.00,WeatherDisplay:10.37,2013-04-26 12:04:00,
2013-04-26 05:09:00,41.1,31.7,30.11,SW,221,2.3,2.3,69,0.00,CLR,,0.00,WeatherDisplay:10.37,2013-04-26 12:09:00,
2013-04-26 05:14:00,41.7,31.9,30.10,SW,221,3.0,3.0,68,0.00,CLR,,0.00,WeatherDisplay:10.37,2013-04-26 12:14:00,
2013-04-26 05:19:00,42.0,31.8,30.10,SW,221,2.3,2.3,67,0.00,CLR,,0.00,WeatherDisplay:10.37,2013-04-26 12:19:00,
2013-04-26 05:24:00,41.9,31.7,30.10,SW,221,2.3,2.3,67,0.00,CLR,,0.00,WeatherDisplay:10.37,2013-04-26 12:24:00,
2013-04-26 05:29:00,40.8,31.4,30.11,SW,221,3.5,3.5,69,0.00,CLR,,0.00,WeatherDisplay:10.37,2013-04-26 12:29:00,
2013-04-26 05:34:00,39.9,31.6,30.11,SW,221,3.5,3.5,72,0.00,CLR,,0.00,WeatherDisplay:10.37,2013-04-26 12:34:00,
2013-04-26 05:39:00,40.3,32.0,30.12,SW,221,2.3,2.3,72,0.00,CLR,,0.00,WeatherDisplay:10.37,2013-04-26 12:39:00,
2013-04-26 05:44:00,40.9,32.2,30.11,SW,221,0.0,0.0,71,0.00,CLR,,0.00,WeatherDisplay:10.37,2013-04-26 12:44:00,
2013-04-26 05:49:00,41.1,32.1,30.12,SW,221,0.0,0.0,70,0.00,CLR,,0.00,WeatherDisplay:10.37,2013-04-26 12:49:00,
2013-04-26 05:54:00,41.5,31.7,30.11,SW,221,1.1,0.0,68,0.00,CLR,,0.00,WeatherDisplay:10.37,2013-04-26 12:54:00,
2013-04-26 05:59:00,41.5,32.1,30.12,SW,221,3.5,3.5,69,0.00,CLR,,0.00,WeatherDisplay:10.37,2013-04-26 12:59:00,
2013-04-26 06:04:00,40.8,31.8,30.13,SW,221,3.5,3.5,70,0.00,CLR,,0.00,WeatherDisplay:10.37,2013-04-26 13:04:00,
2013-04-26 06:09:00,41.0,32.0,30.13,SW,221,3.5,3.5,70,0.00,CLR,,0.00,WeatherDisplay:10.37,2013-04-26 13:09:00,
2013-04-26 06:14:00,41.1,32.4,30.14,SW,221,2.3,2.3,71,0.00,CLR,,0.00,WeatherDisplay:10.37,2013-04-26 13:14:00,
2013-04-26 06:19:00,41.3,32.6,30.14,SW,221,3.5,3.5,71,0.00,CLR,,0.00,WeatherDisplay:10.37,2013-04-26 13:19:00,
2013-04-26 06:24:00,41.7,32.6,30.13,SW,221,0.0,0.0,70,0.00,CLR,,0.00,WeatherDisplay:10.37,2013-04-26 13:24:00,
2013-04-26 06:29:00,42.3,32.8,30.13,SW,221,0.0,0.0,69,0.00,CLR,,0.00,WeatherDisplay:10.37,2013-04-26 13:29:00,
2013-04-26 06:34:00,42.9,33.8,30.13,SW,221,0.0,0.0,70,0.00,CLR,,0.00,WeatherDisplay:10.37,2013-04-26 13:34:00,
2013-04-26 06:39:00,43.7,32.7,30.13,SW,221,0.0,0.0,65,0.00,CLR,,0.00,WeatherDisplay:10.37,2013-04-26 13:39:00,
2013-04-26 06:44:00,44.8,33.7,30.13,SW,221,2.3,2.3,65,0.00,CLR,,0.00,WeatherDisplay:10.37,2013-04-26 13:44:00,
2013-04-26 06:49:00,46.1,33.8,30.12,SW,221,0.0,0.0,62,0.00,CLR,,0.00,WeatherDisplay:10.37,2013-04-26 13:49:00,
2013-04-26 06:54:00,47.1,35.9,30.12,SW,221,0.0,0.0,65,0.00,CLR,,0.00,WeatherDisplay:10.37,2013-04-26 13:54:00,
2013-04-26 06:59:00,47.9,35.1,30.12,SW,221,0.0,0.0,61,0.00,CLR,,0.00,WeatherDisplay:10.37,2013-04-26 13:59:00,
2013-04-26 07:04:00,48.8,36.4,30.13,SW,221,0.0,0.0,62,0.00,CLR,,0.00,WeatherDisplay:10.37,2013-04-26 14:04:00,
2013-04-26 07:09:00,49.4,37.3,30.13,SW,221,0.0,0.0,63,0.00,CLR,,0.00,WeatherDisplay:10.37,2013-04-26 14:09:00,
2013-04-26 07:14:00,48.5,36.1,30.13,SW,221,0.0,0.0,62,0.00,CLR,,0.00,WeatherDisplay:10.37,2013-04-26 14:14:00,
2013-04-26 07:19:00,48.0,39.0,30.15,SW,221,0.0,0.0,71,0.00,CLR,,0.00,WeatherDisplay:10.37,2013-04-26 14:19:00,
2013-04-26 07:24:00,48.1,37.7,30.15,SW,221,0.0,0.0,67,0.00,CLR,,0.00,WeatherDisplay:10.37,2013-04-26 14:24:00,
2013-04-26 07:29:00,49.0,39.3,30.14,SW,221,0.0,0.0,69,0.00,CLR,,0.00,WeatherDisplay:10.37,2013-04-26 14:29:00,
2013-04-26 07:34:00,49.9,37.0,30.14,South,171,0.0,0.0,61,0.00,CLR,,0.00,WeatherDisplay:10.37,2013-04-26 14:34:00,
2013-04-26 07:39:00,50.5,38.8,30.14,South,171,0.0,0.0,64,0.00,CLR,,0.00,WeatherDisplay:10.37,2013-04-26 14:39:00,
2013-04-26 07:44:00,51.3,37.4,30.14,SE,132,1.1,1.1,59,0.00,CLR,,0.00,WeatherDisplay:10.37,2013-04-26 14:44:00,
2013-04-26 07:49:00,51.4,38.4,30.14,SE,132,2.3,2.3,61,0.00,CLR,,0.00,WeatherDisplay:10.37,2013-04-26 14:49:00,
2013-04-26 07:55:00,51.6,40.2,30.14,SE,132,1.0,1.0,65,0.00,CLR,,0.00,WeatherDisplay:10.37,2013-04-26 14:55:00,
2013-04-26 08:00:00,52.3,39.7,30.15,SE,132,1.1,1.1,62,0.00,CLR,,0.00,WeatherDisplay:10.37,2013-04-26 15:00:00,
2013-04-26 08:05:00,53.1,39.1,30.15,SE,132,1.1,0.0,59,0.00,CLR,,0.00,WeatherDisplay:10.37,2013-04-26 15:05:00,
2013-04-26 08:10:00,53.6,39.2,30.15,SE,132,0.0,0.0,58,0.00,CLR,,0.00,WeatherDisplay:10.37,2013-04-26 15:10:00,
2013-04-26 08:15:00,53.8,38.9,30.15,ESE,113,1.1,0.0,57,0.00,CLR,,0.00,WeatherDisplay:10.37,2013-04-26 15:15:00,
2013-04-26 08:20:00,54.2,37.4,30.15,ESE,113,1.1,0.0,53,0.00,CLR,,0.00,WeatherDisplay:10.37,2013-04-26 15:20:00,
2013-04-26 08:25:00,54.9,38.1,30.15,ESE,113,0.0,0.0,53,0.00,CLR,,0.00,WeatherDisplay:10.37,2013-04-26 15:25:00,
2013-04-26 08:30:00,56.2,38.8,30.15,ESE,113,0.0,0.0,52,0.00,CLR,,0.00,WeatherDisplay:10.37,2013-04-26 15:30:00,
2013-04-26 08:35:00,57.4,40.4,30.15,ESE,113,0.0,0.0,53,0.00,CLR,,0.00,WeatherDisplay:10.37,2013-04-26 15:35:00,
2013-04-26 08:40:00,58.0,41.9,30.14,ENE,63,4.6,4.6,55,0.00,CLR,,0.00,WeatherDisplay:10.37,2013-04-26 15:40:00,
2013-04-26 08:45:00,56.4,41.3,30.15,ENE,64,5.8,5.8,57,0.00,CLR,,0.00,WeatherDisplay:10.37,2013-04-26 15:45:00,
2013-04-26 08:50:00,55.8,41.2,30.15,ENE,65,4.6,4.6,58,0.00,CLR,,0.00,WeatherDisplay:10.37,2013-04-26 15:50:00,
2013-04-26 08:55:00,55.9,42.2,30.15,ENE,57,4.6,4.6,60,0.00,CLR,,0.00,WeatherDisplay:10.37,2013-04-26 15:55:00,
2013-04-26 09:00:00,56.2,41.6,30.15,ENE,62,4.6,4.6,58,0.00,CLR,,0.00,WeatherDisplay:10.37,2013-04-26 16:00:00,
2013-04-26 09:05:00,56.3,40.8,30.18,ENE,61,3.5,3.5,56,0.00,CLR,,0.00,WeatherDisplay:10.37,2013-04-26 16:05:00,
2013-04-26 09:10:00,56.2,40.7,30.18,East,89,3.5,3.7,56,0.00,CLR,,0.00,WeatherDisplay:10.37,2013-04-26 16:10:00,
2013-04-26 09:15:00,56.1,41.5,30.18,East,99,4.6,4.6,58,0.00,CLR,,0.00,WeatherDisplay:10.37,2013-04-26 16:15:00,
2013-04-26 09:20:00,56.3,39.9,30.18,East,101,1.1,1.1,54,0.00,CLR,,0.00,WeatherDisplay:10.37,2013-04-26 16:20:00,
2013-04-26 09:25:00,56.9,38.9,30.18,WSW,254,8.1,8.1,51,0.00,CLR,,0.00,WeatherDisplay:10.37,2013-04-26 16:25:00,
2013-04-26 09:30:00,57.5,42.8,30.18,NW,322,3.5,3.5,58,0.00,CLR,,0.00,WeatherDisplay:10.37,2013-04-26 16:30:00,
2013-04-26 09:35:00,59.0,40.9,30.17,NW,305,3.5,3.5,51,0.00,CLR,,0.00,WeatherDisplay:10.37,2013-04-26 16:35:00,
2013-04-26 09:40:00,60.0,41.3,30.17,NW,304,3.5,3.5,50,0.00,CLR,,0.00,WeatherDisplay:10.37,2013-04-26 16:40:00,
2013-04-26 09:45:00,61.3,39.2,30.17,NW,305,3.5,3.5,44,0.00,CLR,,0.00,WeatherDisplay:10.37,2013-04-26 16:45:00,
2013-04-26 09:50:00,62.2,39.4,30.17,WNW,284,9.2,9.2,43,0.00,CLR,,0.00,WeatherDisplay:10.37,2013-04-26 16:50:00,
2013-04-26 09:55:00,60.5,37.3,30.17,West,265,1.1,1.1,42,0.00,CLR,,0.00,WeatherDisplay:10.37,2013-04-26 16:55:00,
2013-04-26 10:00:00,59.4,39.1,30.17,SW,230,10.4,10.4,47,0.00,CLR,,0.00,WeatherDisplay:10.37,2013-04-26 17:00:00,
2013-04-26 10:05:00,59.1,38.3,30.18,WSW,254,10.4,10.4,46,0.00,CLR,,0.00,WeatherDisplay:10.37,2013-04-26 17:05:00,
2013-04-26 10:10:00,58.7,38.0,30.17,SW,223,9.2,9.2,46,0.00,CLR,,0.00,WeatherDisplay:10.37,2013-04-26 17:10:00,
2013-04-26 10:15:00,58.7,39.0,30.18,WSW,249,13.0,13.0,48,0.00,CLR,,0.00,WeatherDisplay:10.37,2013-04-26 17:15:00,
2013-04-26 10:20:00,58.7,39.6,30.18,WNW,284,5.8,5.8,49,0.00,CLR,,0.00,WeatherDisplay:10.37,2013-04-26 17:20:00,
2013-04-26 10:25:00,59.9,41.2,30.18,WNW,284,4.0,4.0,50,0.00,CLR,,0.00,WeatherDisplay:10.37,2013-04-26 17:25:00,
2013-04-26 10:30:00,60.3,40.0,30.18,WNW,301,5.0,5.0,47,0.00,CLR,,0.00,WeatherDisplay:10.37,2013-04-26 17:30:00,
2013-04-26 10:35:00,60.2,40.4,30.18,West,280,11.5,11.5,48,0.00,CLR,,0.00,WeatherDisplay:10.37,2013-04-26 17:35:00,
2013-04-26 10:40:00,59.8,37.8,30.18,West,276,12.7,12.7,44,0.00,CLR,,0.00,WeatherDisplay:10.37,2013-04-26 17:40:00,
2013-04-26 10:45:00,59.4,39.7,30.19,West,262,13.0,13.0,48,0.00,CLR,,0.00,WeatherDisplay:10.37,2013-04-26 17:45:00,
2013-04-26 10:50:00,59.0,37.7,30.19,WSW,242,11.5,11.5,45,0.00,CLR,,0.00,WeatherDisplay:10.37,2013-04-26 17:50:00,
2013-04-26 10:55:00,59.5,40.3,30.19,WNW,290,5.0,5.0,49,0.00,CLR,,0.00,WeatherDisplay:10.37,2013-04-26 17:55:00,
2013-04-26 11:00:00,60.8,39.9,30.19,WNW,284,10.4,10.4,46,0.00,CLR,,0.00,WeatherDisplay:10.37,2013-04-26 18:00:00,
2013-04-26 11:05:00,61.4,39.3,30.18,West,265,11.5,11.5,44,0.00,CLR,,0.00,WeatherDisplay:10.37,2013-04-26 18:05:00,
2013-04-26 11:10:00,60.8,38.1,30.19,West,269,7.0,7.0,43,0.00,CLR,,0.00,WeatherDisplay:10.37,2013-04-26 18:10:00,
2013-04-26 11:15:00,60.9,38.8,30.19,West,264,10.4,10.4,44,0.00,CLR,,0.00,WeatherDisplay:10.37,2013-04-26 18:15:00,
2013-04-26 11:20:00,60.8,41.5,30.18,West,281,6.0,6.0,49,0.00,CLR,,0.00,WeatherDisplay:10.37,2013-04-26 18:20:00,
2013-04-26 11:25:00,61.2,40.2,30.18,West,279,9.2,9.2,46,0.00,CLR,,0.00,WeatherDisplay:10.37,2013-04-26 18:25:00,
2013-04-26 11:30:00,60.2,38.8,30.19,West,279,13.8,13.8,45,0.00,CLR,,0.00,WeatherDisplay:10.37,2013-04-26 18:30:00,
2013-04-26 11:35:00,59.9,39.6,30.19,West,276,15.0,15.0,47,0.00,CLR,,0.00,WeatherDisplay:10.37,2013-04-26 18:35:00,
2013-04-26 11:40:00,60.1,39.8,30.19,West,265,17.3,17.3,47,0.00,CLR,,0.00,WeatherDisplay:10.37,2013-04-26 18:40:00,
2013-04-26 11:45:00,60.2,40.4,30.19,West,278,6.9,6.9,48,0.00,CLR,,0.00,WeatherDisplay:10.37,2013-04-26 18:45:00,
2013-04-26 11:50:00,61.5,40.5,30.18,WNW,287,5.8,5.8,46,0.00,CLR,,0.00,WeatherDisplay:10.37,2013-04-26 18:50:00,
2013-04-26 11:55:00,62.9,42.4,30.18,NNW,331,3.5,3.5,47,0.00,CLR,,0.00,WeatherDisplay:10.37,2013-04-26 18:55:00,
2013-04-26 12:00:00,63.3,39.8,30.17,West,261,11.5,11.5,42,0.00,CLR,,0.00,WeatherDisplay:10.37,2013-04-26 19:00:00,
2013-04-26 12:05:00,61.4,39.9,30.18,West,281,5.8,5.8,45,0.00,CLR,,0.00,WeatherDisplay:10.37,2013-04-26 19:05:00,
2013-04-26 12:10:00,62.0,39.8,30.18,West,279,15.0,15.0,44,0.00,CLR,,0.00,WeatherDisplay:10.37,2013-04-26 19:10:00,
2013-04-26 12:15:00,60.7,40.3,30.18,West,273,16.1,16.1,47,0.00,CLR,,0.00,WeatherDisplay:10.37,2013-04-26 19:15:00,
2013-04-26 12:20:00,61.1,40.1,30.18,WNW,282,6.9,6.9,46,0.00,CLR,,0.00,WeatherDisplay:10.37,2013-04-26 19:20:00,
2013-04-26 12:25:00,62.2,41.2,30.17,NW,312,3.5,3.5,46,0.00,CLR,,0.00,WeatherDisplay:10.37,2013-04-26 19:25:00,
2013-04-26 12:30:00,63.4,41.1,30.17,NW,321,3.5,3.5,44,0.00,CLR,,0.00,WeatherDisplay:10.37,2013-04-26 19:30:00,
2013-04-26 12:35:00,64.3,41.9,30.17,West,278,11.5,11.5,44,0.00,CLR,,0.00,WeatherDisplay:10.37,2013-04-26 19:35:00,
2013-04-26 12:40:00,63.7,41.9,30.17,WNW,291,12.0,12.0,45,0.00,CLR,,0.00,WeatherDisplay:10.37,2013-04-26 19:40:00,
2013-04-26 12:45:00,62.9,40.6,30.16,WNW,288,15.0,15.0,44,0.00,CLR,,0.00,WeatherDisplay:10.37,2013-04-26 19:45:00,
2013-04-26 12:50:00,62.0,40.4,30.17,West,277,15.0,15.0,45,0.00,CLR,,0.00,WeatherDisplay:10.37,2013-04-26 19:50:00,
2013-04-26 12:55:00,61.6,42.2,30.17,West,275,20.7,20.7,49,0.00,CLR,,0.00,WeatherDisplay:10.37,2013-04-26 19:55:00,
2013-04-26 13:00:00,62.0,41.0,30.17,West,271,14.0,14.0,46,0.00,CLR,,0.00,WeatherDisplay:10.37,2013-04-26 20:00:00,
2013-04-26 13:05:00,63.0,41.9,30.17,WNW,294,13.8,13.8,46,0.00,CLR,,0.00,WeatherDisplay:10.37,2013-04-26 20:05:00,
2013-04-26 13:10:00,62.1,40.5,30.17,WNW,290,16.1,16.1,45,0.00,CLR,,0.00,WeatherDisplay:10.37,2013-04-26 20:10:00,
2013-04-26 13:15:00,61.8,38.4,30.18,West,273,16.1,16.1,42,0.00,CLR,,0.00,WeatherDisplay:10.37,2013-04-26 20:15:00,
2013-04-26 13:20:00,61.6,40.0,30.17,West,273,16.1,16.1,45,0.00,CLR,,0.00,WeatherDisplay:10.37,2013-04-26 20:20:00,
2013-04-26 13:25:00,61.6,37.0,30.17,West,280,18.4,18.4,40,0.00,CLR,,0.00,WeatherDisplay:10.37,2013-04-26 20:25:00,
2013-04-26 13:30:00,62.4,40.8,30.17,NW,318,11.5,11.5,45,0.00,CLR,,0.00,WeatherDisplay:10.37,2013-04-26 20:30:00,
2013-04-26 13:36:00,64.2,40.6,30.17,North,360,10.4,10.4,42,0.00,CLR,,0.00,WeatherDisplay:10.37,2013-04-26 20:36:00,
2013-04-26 13:41:00,65.6,41.3,30.16,WNW,292,4.6,4.6,41,0.00,CLR,,0.00,WeatherDisplay:10.37,2013-04-26 20:41:00,
2013-04-26 13:46:00,66.5,40.8,30.16,NW,305,5.8,5.8,39,0.00,CLR,,0.00,WeatherDisplay:10.37,2013-04-26 20:46:00,
2013-04-26 13:51:00,66.8,41.7,30.15,West,277,6.0,6.0,40,0.00,CLR,,0.00,WeatherDisplay:10.37,2013-04-26 20:51:00,
2013-04-26 13:56:00,65.6,40.0,30.16,West,276,11.5,11.5,39,0.00,CLR,,0.00,WeatherDisplay:10.37,2013-04-26 20:56:00,
2013-04-26 14:01:00,64.5,41.5,30.16,WNW,296,11.5,11.5,43,0.00,CLR,,0.00,WeatherDisplay:10.37,2013-04-26 21:01:00,
2013-04-26 14:06:00,65.4,41.1,30.16,NW,304,3.5,3.5,41,0.00,CLR,,0.00,WeatherDisplay:10.37,2013-04-26 21:06:00,
2013-04-26 14:11:00,65.0,38.8,30.16,West,261,17.3,17.3,38,0.00,CLR,,0.00,WeatherDisplay:10.37,2013-04-26 21:11:00,
2013-04-26 14:16:00,63.4,39.3,30.16,NW,319,17.3,17.3,41,0.00,CLR,,0.00,WeatherDisplay:10.37,2013-04-26 21:16:00,
2013-04-26 14:21:00,64.4,40.2,30.15,WNW,296,6.9,6.9,41,0.00,CLR,,0.00,WeatherDisplay:10.37,2013-04-26 21:21:00,
2013-04-26 14:26:00,66.0,40.3,30.15,WNW,293,5.8,5.8,39,0.00,CLR,,0.00,WeatherDisplay:10.37,2013-04-26 21:26:00,
2013-04-26 14:31:00,65.7,41.3,30.14,West,281,12.7,12.7,41,0.00,CLR,,0.00,WeatherDisplay:10.37,2013-04-26 21:31:00,
2013-04-26 14:36:00,65.1,38.8,30.15,West,265,15.0,15.0,38,0.00,CLR,,0.00,WeatherDisplay:10.37,2013-04-26 21:36:00,
2013-04-26 14:41:00,64.0,41.0,30.15,NW,319,12.7,12.7,43,0.00,CLR,,0.00,WeatherDisplay:10.37,2013-04-26 21:41:00,
2013-04-26 14:46:00,64.9,43.0,30.15,NNW,335,4.6,4.6,45,0.00,CLR,,0.00,WeatherDisplay:10.37,2013-04-26 21:46:00,
2013-04-26 14:51:00,66.6,40.9,30.15,WNW,291,5.0,5.0,39,0.00,CLR,,0.00,WeatherDisplay:10.37,2013-04-26 21:51:00,
2013-04-26 14:56:00,67.7,41.8,30.14,WNW,296,5.0,5.0,39,0.00,CLR,,0.00,WeatherDisplay:10.37,2013-04-26 21:56:00,
2013-04-26 15:01:00,68.2,41.6,30.15,West,275,7.0,7.0,38,0.00,CLR,,0.00,WeatherDisplay:10.37,2013-04-26 22:01:00,
2013-04-26 15:06:00,66.7,40.3,30.14,NNE,24,4.6,4.6,38,0.00,CLR,,0.00,WeatherDisplay:10.37,2013-04-26 22:06:00,
2013-04-26 15:11:00,67.2,38.6,30.14,WNW,284,15.0,15.0,35,0.00,CLR,,0.00,WeatherDisplay:10.37,2013-04-26 22:11:00,
2013-04-26 15:16:00,66.5,39.4,30.14,West,268,6.9,6.9,37,0.00,CLR,,0.00,WeatherDisplay:10.37,2013-04-26 22:16:00,
2013-04-26 15:21:00,66.4,39.3,30.15,West,273,13.8,13.8,37,0.00,CLR,,0.00,WeatherDisplay:10.37,2013-04-26 22:21:00,
2013-04-26 15:26:00,65.7,41.3,30.14,WNW,295,4.0,4.0,41,0.00,CLR,,0.00,WeatherDisplay:10.37,2013-04-26 22:26:00,
2013-04-26 15:31:00,66.7,40.9,30.13,WNW,286,11.5,11.5,39,0.00,CLR,,0.00,WeatherDisplay:10.37,2013-04-26 22:31:00,
2013-04-26 15:36:00,66.6,40.9,30.13,NW,315,5.8,5.8,39,0.00,CLR,,0.00,WeatherDisplay:10.37,2013-04-26 22:36:00,
2013-04-26 15:41:00,67.4,40.9,30.13,WNW,282,6.0,6.0,38,0.00,CLR,,0.00,WeatherDisplay:10.37,2013-04-26 22:41:00,
2013-04-26 15:46:00,67.4,39.5,30.13,WNW,286,6.9,6.9,36,0.00,CLR,,0.00,WeatherDisplay:10.37,2013-04-26 22:46:00,
2013-04-26 15:51:00,67.6,39.7,30.13,WNW,298,7.0,7.0,36,0.00,CLR,,0.00,WeatherDisplay:10.37,2013-04-26 22:51:00,
2013-04-26 15:56:00,67.7,41.2,30.13,NNW,334,4.6,4.6,38,0.00,CLR,,0.00,WeatherDisplay:10.37,2013-04-26 22:56:00,
2013-04-26 16:01:00,68.2,40.9,30.13,WNW,303,8.1,8.1,37,0.00,CLR,,0.00,WeatherDisplay:10.37,2013-04-26 23:01:00,
2013-04-26 16:06:00,67.9,39.2,30.13,West,280,16.1,16.1,35,0.00,CLR,,0.00,WeatherDisplay:10.37,2013-04-26 23:06:00,
2013-04-26 16:11:00,66.8,41.0,30.13,NW,321,5.0,5.0,39,0.00,CLR,,0.00,WeatherDisplay:10.37,2013-04-26 23:11:00,
2013-04-26 16:16:00,67.6,41.1,30.13,WNW,302,6.9,6.9,38,0.00,CLR,,0.00,WeatherDisplay:10.37,2013-04-26 23:16:00,
2013-04-26 16:21:00,68.3,40.3,30.13,NW,308,5.8,5.8,36,0.00,CLR,,0.00,WeatherDisplay:10.37,2013-04-26 23:21:00,
2013-04-26 16:26:00,68.5,40.5,30.12,NW,312,3.5,3.5,36,0.00,CLR,,0.00,WeatherDisplay:10.37,2013-04-26 23:26:00,
2013-04-26 16:31:00,68.3,41.7,30.13,NNW,334,8.1,8.1,38,0.00,CLR,,0.00,WeatherDisplay:10.37,2013-04-26 23:31:00,
2013-04-26 16:36:00,68.1,41.5,30.12,NNW,327,5.0,5.0,38,0.00,CLR,,0.00,WeatherDisplay:10.37,2013-04-26 23:36:00,
2013-04-26 16:41:00,68.1,40.1,30.12,NW,313,4.6,4.6,36,0.00,CLR,,0.00,WeatherDisplay:10.37,2013-04-26 23:41:00,
2013-04-26 16:46:00,68.2,41.6,30.12,NW,313,3.5,3.5,38,0.00,CLR,,0.00,WeatherDisplay:10.37,2013-04-26 23:46:00,
2013-04-26 16:51:00,68.5,42.6,30.11,NW,313,2.3,2.3,39,0.00,CLR,,0.00,WeatherDisplay:10.37,2013-04-26 23:51:00,
2013-04-26 17:05:00,69.0,41.6,30.11,NW,319,3.5,3.5,37,0.00,CLR,,0.00,WeatherDisplay:10.37,2013-04-27 00:05:00,
2013-04-26 17:10:00,68.8,40.7,30.11,WNW,298,5.8,5.8,36,0.00,CLR,,0.00,WeatherDisplay:10.37,2013-04-27 00:10:00,
2013-04-26 17:15:00,68.6,41.3,30.11,NW,325,3.5,3.5,37,0.00,CLR,,0.00,WeatherDisplay:10.37,2013-04-27 00:15:00,
2013-04-26 17:20:00,68.7,42.1,30.12,NW,309,3.5,3.5,38,0.00,CLR,,0.00,WeatherDisplay:10.37,2013-04-27 00:20:00,
2013-04-26 17:25:00,68.8,40.0,30.12,WNW,294,2.3,2.3,35,0.00,CLR,,0.00,WeatherDisplay:10.37,2013-04-27 00:25:00,
2013-04-26 17:30:00,68.7,41.4,30.12,North,355,5.8,5.8,37,0.00,CLR,,0.00,WeatherDisplay:10.37,2013-04-27 00:30:00,
2013-04-26 17:35:00,68.5,41.2,30.11,NW,316,4.6,4.6,37,0.00,CLR,,0.00,WeatherDisplay:10.37,2013-04-27 00:35:00,
2013-04-26 17:40:00,68.4,41.1,30.11,NNW,330,9.2,9.2,37,0.00,CLR,,0.00,WeatherDisplay:10.37,2013-04-27 00:40:00,
2013-04-26 17:45:00,68.0,40.7,30.12,North,350,9.2,9.2,37,0.00,CLR,,0.00,WeatherDisplay:10.37,2013-04-27 00:45:00,
2013-04-26 17:50:00,67.8,41.3,30.12,North,355,6.9,6.9,38,0.00,CLR,,0.00,WeatherDisplay:10.37,2013-04-27 00:50:00,
2013-04-26 17:55:00,67.4,40.2,30.11,NNW,330,3.5,3.7,37,0.00,CLR,,0.00,WeatherDisplay:10.37,2013-04-27 00:55:00,
2013-04-26 18:00:00,66.2,40.5,30.10,NNW,333,6.0,6.0,39,0.00,CLR,,0.00,WeatherDisplay:10.37,2013-04-27 01:00:00,
2013-04-26 18:06:00,65.3,41.0,30.11,NW,318,5.8,5.8,41,0.00,CLR,,0.00,WeatherDisplay:10.37,2013-04-27 01:06:00,
2013-04-26 18:11:00,65.0,41.3,30.11,NW,324,2.3,2.3,42,0.00,CLR,,0.00,WeatherDisplay:10.37,2013-04-27 01:11:00,
2013-04-26 18:16:00,65.0,40.7,30.11,NNW,327,2.3,2.3,41,0.00,CLR,,0.00,WeatherDisplay:10.37,2013-04-27 01:16:00,
2013-04-26 18:21:00,65.1,40.8,30.11,NW,319,3.5,3.5,41,0.00,CLR,,0.00,WeatherDisplay:10.37,2013-04-27 01:21:00,
2013-04-26 18:26:00,65.4,41.1,30.11,North,360,4.6,4.6,41,0.00,CLR,,0.00,WeatherDisplay:10.37,2013-04-27 01:26:00,
2013-04-26 18:31:00,65.5,39.9,30.10,WNW,301,3.5,3.5,39,0.00,CLR,,0.00,WeatherDisplay:10.37,2013-04-27 01:31:00,
2013-04-26 18:36:00,65.2,40.3,30.11,NW,318,5.0,5.0,40,0.00,CLR,,0.00,WeatherDisplay:10.37,2013-04-27 01:36:00,
2013-04-26 18:41:00,64.9,40.0,30.11,NNW,336,2.3,2.3,40,0.00,CLR,,0.00,WeatherDisplay:10.37,2013-04-27 01:41:00,
2013-04-26 18:46:00,64.6,41.0,30.11,NNW,336,0.0,0.0,42,0.00,CLR,,0.00,WeatherDisplay:10.37,2013-04-27 01:46:00,
2013-04-26 18:51:00,64.2,40.6,30.10,NNW,336,0.0,0.0,42,0.00,CLR,,0.00,WeatherDisplay:10.37,2013-04-27 01:51:00,
2013-04-26 18:56:00,63.7,40.2,30.11,NNE,17,2.3,2.3,42,0.00,CLR,,0.00,WeatherDisplay:10.37,2013-04-27 01:56:00,
2013-04-26 19:01:00,63.2,40.3,30.10,North,360,1.1,0.0,43,0.00,CLR,,0.00,WeatherDisplay:10.37,2013-04-27 02:01:00,
2013-04-26 19:06:00,62.7,40.5,30.10,North,360,0.0,0.0,44,0.00,CLR,,0.00,WeatherDisplay:10.37,2013-04-27 02:06:00,
2013-04-26 19:11:00,62.3,40.7,30.09,North,360,1.1,1.1,45,0.00,CLR,,0.00,WeatherDisplay:10.37,2013-04-27 02:11:00,
2013-04-26 19:16:00,61.9,40.3,30.10,North,360,1.1,1.1,45,0.00,CLR,,0.00,WeatherDisplay:10.37,2013-04-27 02:16:00,
2013-04-26 19:21:00,61.5,40.5,30.10,North,360,1.1,0.0,46,0.00,CLR,,0.00,WeatherDisplay:10.37,2013-04-27 02:21:00,
2013-04-26 19:26:00,61.1,40.1,30.10,NNW,342,3.5,3.5,46,0.00,CLR,,0.00,WeatherDisplay:10.37,2013-04-27 02:26:00,
2013-04-26 19:31:00,60.8,40.4,30.11,NNW,342,2.3,2.3,47,0.00,CLR,,0.00,WeatherDisplay:10.37,2013-04-27 02:31:00,
2013-04-26 19:36:00,60.5,40.7,30.10,NNW,342,1.1,0.0,48,0.00,CLR,,0.00,WeatherDisplay:10.37,2013-04-27 02:36:00,
2013-04-26 19:41:00,60.1,39.8,30.10,NNW,342,1.1,1.1,47,0.00,CLR,,0.00,WeatherDisplay:10.37,2013-04-27 02:41:00,
2013-04-26 19:46:00,59.8,40.1,30.10,NNW,341,0.0,0.0,48,0.00,CLR,,0.00,WeatherDisplay:10.37,2013-04-27 02:46:00,
2013-04-26 19:51:00,59.5,39.8,30.11,NNW,342,1.1,0.0,48,0.00,CLR,,0.00,WeatherDisplay:10.37,2013-04-27 02:51:00,
2013-04-26 19:56:00,59.0,39.9,30.11,NNW,342,1.1,1.1,49,0.00,CLR,,0.00,WeatherDisplay:10.37,2013-04-27 02:56:00,
2013-04-26 20:01:00,59.0,39.9,30.10,NNW,342,0.0,0.0,49,0.00,CLR,,0.00,WeatherDisplay:10.37,2013-04-27 03:01:00,
2013-04-26 20:06:00,58.5,38.9,30.10,NNW,342,0.0,0.0,48,0.00,CLR,,0.00,WeatherDisplay:10.37,2013-04-27 03:06:00,
2013-04-26 20:11:00,58.2,38.6,30.10,NNW,342,1.1,1.1,48,0.00,CLR,,0.00,WeatherDisplay:10.37,2013-04-27 03:11:00,
2013-04-26 20:16:00,57.8,38.2,30.10,NNW,342,2.3,2.3,48,0.00,CLR,,0.00,WeatherDisplay:10.37,2013-04-27 03:16:00,
2013-04-26 20:21:00,57.5,37.4,30.10,NNW,342,2.3,2.3,47,0.00,CLR,,0.00,WeatherDisplay:10.37,2013-04-27 03:21:00,
2013-04-26 20:26:00,57.2,37.1,30.11,NNW,341,2.0,2.0,47,0.00,CLR,,0.00,WeatherDisplay:10.37,2013-04-27 03:26:00,
2013-04-26 20:31:00,57.0,37.0,30.11,NNW,342,2.3,2.3,47,0.00,CLR,,0.00,WeatherDisplay:10.37,2013-04-27 03:31:00,
2013-04-26 20:36:00,56.8,36.8,30.11,NNW,342,2.3,0.0,47,0.00,CLR,,0.00,WeatherDisplay:10.37,2013-04-27 03:36:00,
2013-04-26 20:41:00,56.7,36.1,30.11,NNW,341,1.1,0.0,46,0.00,CLR,,0.00,WeatherDisplay:10.37,2013-04-27 03:41:00,
2013-04-26 20:46:00,56.5,36.0,30.11,NNW,342,1.1,0.0,46,0.00,CLR,,0.00,WeatherDisplay:10.37,2013-04-27 03:46:00,
2013-04-26 20:51:00,56.2,35.7,30.12,NNW,341,0.0,0.0,46,0.00,CLR,,0.00,WeatherDisplay:10.37,2013-04-27 03:51:00,
2013-04-26 20:56:00,55.9,35.4,30.12,NNW,341,1.1,1.1,46,0.00,CLR,,0.00,WeatherDisplay:10.37,2013-04-27 03:56:00,
2013-04-26 21:01:00,55.9,35.4,30.10,NNW,341,0.0,0.1,46,0.00,CLR,,0.00,WeatherDisplay:10.37,2013-04-27 04:01:00,
2013-04-26 21:06:00,55.8,35.3,30.10,NNW,342,2.0,2.0,46,0.00,CLR,,0.00,WeatherDisplay:10.37,2013-04-27 04:06:00,
2013-04-26 21:12:00,55.8,34.8,30.11,NNW,341,1.1,1.1,45,0.00,CLR,,0.00,WeatherDisplay:10.37,2013-04-27 04:12:00,
2013-04-26 21:17:00,55.8,34.8,30.11,NNW,342,1.1,1.1,45,0.00,CLR,,0.00,WeatherDisplay:10.37,2013-04-27 04:17:00,
2013-04-26 21:22:00,55.8,34.2,30.11,NNW,341,2.3,2.3,44,0.00,CLR,,0.00,WeatherDisplay:10.37,2013-04-27 04:22:00,
2013-04-26 21:27:00,55.7,34.1,30.11,NNW,342,0.0,0.0,44,0.00,CLR,,0.00,WeatherDisplay:10.37,2013-04-27 04:27:00,
2013-04-26 21:32:00,55.7,34.1,30.11,NNW,342,0.0,0.0,44,0.00,CLR,,0.00,WeatherDisplay:10.37,2013-04-27 04:32:00,
2013-04-26 21:37:00,55.6,34.0,30.11,NNW,342,1.1,1.1,44,0.00,CLR,,0.00,WeatherDisplay:10.37,2013-04-27 04:37:00,
2013-04-26 21:42:00,55.7,33.5,30.11,West,272,4.6,4.6,43,0.00,CLR,,0.00,WeatherDisplay:10.37,2013-04-27 04:42:00,
2013-04-26 21:47:00,55.8,33.6,30.11,West,272,3.5,3.5,43,0.00,CLR,,0.00,WeatherDisplay:10.37,2013-04-27 04:47:00,
2013-04-26 21:52:00,55.8,33.6,30.10,West,272,1.1,1.1,43,0.00,CLR,,0.00,WeatherDisplay:10.37,2013-04-27 04:52:00,
2013-04-26 21:57:00,55.8,33.6,30.10,West,272,1.1,1.1,43,0.00,CLR,,0.00,WeatherDisplay:10.37,2013-04-27 04:57:00,
2013-04-26 22:02:00,55.7,34.1,30.10,West,272,2.3,2.3,44,0.00,CLR,,0.00,WeatherDisplay:10.37,2013-04-27 05:02:00,
2013-04-26 22:07:00,55.6,34.0,30.10,West,272,5.8,5.8,44,0.00,CLR,,0.00,WeatherDisplay:10.37,2013-04-27 05:07:00,
2013-04-26 22:12:00,55.1,34.7,30.10,West,272,3.5,3.5,46,0.00,CLR,,0.00,WeatherDisplay:10.37,2013-04-27 05:12:00,
2013-04-26 22:17:00,53.3,34.6,30.11,West,272,2.3,2.3,49,0.00,CLR,,0.00,WeatherDisplay:10.37,2013-04-27 05:17:00,
2013-04-26 22:22:00,53.4,34.7,30.11,West,272,1.1,1.1,49,0.00,CLR,,0.00,WeatherDisplay:10.37,2013-04-27 05:22:00,
2013-04-26 22:27:00,53.6,34.4,30.11,West,272,1.1,0.0,48,0.00,CLR,,0.00,WeatherDisplay:10.37,2013-04-27 05:27:00,
2013-04-26 22:32:00,53.4,33.7,30.10,West,272,0.0,0.0,47,0.00,CLR,,0.00,WeatherDisplay:10.37,2013-04-27 05:32:00,
2013-04-26 22:37:00,53.3,34.1,30.11,West,272,2.3,0.0,48,0.00,CLR,,0.00,WeatherDisplay:10.37,2013-04-27 05:37:00,
2013-04-26 22:42:00,52.5,34.9,30.10,West,272,0.0,0.0,51,0.00,CLR,,0.00,WeatherDisplay:10.37,2013-04-27 05:42:00,
2013-04-26 22:47:00,51.9,34.8,30.11,West,272,2.3,2.3,52,0.00,CLR,,0.00,WeatherDisplay:10.37,2013-04-27 05:47:00,
2013-04-26 22:52:00,51.8,35.2,30.11,West,272,3.5,3.5,53,0.00,CLR,,0.00,WeatherDisplay:10.37,2013-04-27 05:52:00,
2013-04-26 22:57:00,50.7,36.0,30.11,West,272,3.0,3.0,57,0.00,CLR,,0.00,WeatherDisplay:10.37,2013-04-27 05:57:00,
2013-04-26 23:02:00,48.5,35.7,30.11,West,272,3.5,3.5,61,0.00,CLR,,0.00,WeatherDisplay:10.37,2013-04-27 06:02:00,
2013-04-26 23:07:00,47.4,35.4,30.12,West,272,4.0,4.0,63,0.00,CLR,,0.00,WeatherDisplay:10.37,2013-04-27 06:07:00,
2013-04-26 23:12:00,47.2,35.6,30.12,West,272,4.6,4.6,64,0.00,CLR,,0.00,WeatherDisplay:10.37,2013-04-27 06:12:00,
2013-04-26 23:17:00,47.1,35.9,30.11,WSW,252,4.6,4.6,65,0.00,CLR,,0.00,WeatherDisplay:10.37,2013-04-27 06:17:00,
2013-04-26 23:22:00,46.9,36.1,30.11,SW,232,4.6,4.6,66,0.00,CLR,,0.00,WeatherDisplay:10.37,2013-04-27 06:22:00,
2013-04-26 23:27:00,46.2,36.2,30.11,SW,232,5.0,5.0,68,0.00,CLR,,0.00,WeatherDisplay:10.37,2013-04-27 06:27:00,
2013-04-26 23:32:00,45.7,36.1,30.11,SW,232,5.8,5.8,69,0.00,CLR,,0.00,WeatherDisplay:10.37,2013-04-27 06:32:00,
2013-04-26 23:37:00,45.5,35.9,30.11,SW,232,6.0,6.0,69,0.00,CLR,,0.00,WeatherDisplay:10.37,2013-04-27 06:37:00,
2013-04-26 23:42:00,45.5,36.3,30.11,SW,232,4.0,4.0,70,0.00,CLR,,0.00,WeatherDisplay:10.37,2013-04-27 06:42:00,
2013-04-26 23:47:00,45.8,36.6,30.11,SW,230,4.6,4.6,70,0.00,CLR,,0.00,WeatherDisplay:10.37,2013-04-27 06:47:00,
2013-04-26 23:52:00,46.2,36.6,30.11,SW,233,4.6,4.6,69,0.00,CLR,,0.00,WeatherDisplay:10.37,2013-04-27 06:52:00,
2013-04-26 23:57:00,46.7,36.7,30.11,SW,233,4.6,4.6,68,0.00,CLR,,0.00,WeatherDisplay:10.37,2013-04-27 06:57:00,